|
|
Asteroid (85953) 1999 FK21
(Preview)
The 590 metre wide asteroid 1999 FK21 will make a close pass (69.6 lunar distances, 0.1789 AU), travelling at 16.57 km/second, to the Earth-Moon system on the 3rd April, 2011 @ 02:05 UT ±00:01. See more The Lunar Distance (LD), t...
|
Blobrana
|
2
|
|
|
|
|
Asteroid 2011 EC7
(Preview)
Orbital elements: 2011 EC7 Earth MOID = 0.0510 AU Epoch 2011 Feb. 8.0 TT = JDT 2455600.5 MPC M 316.42443 (2000.0) P Q n 0.35800490 Peri. 120.04029 +0.12342611 +0.99150821 a 1.9643102 Node 156.94227 -0.94267976 +0.13004236 e 0.6970629 Incl. 6.00257 -0.31003364 -0.00067831 P 2.75 H 21.1 G 0.15 U 9 MP...
|
Blobrana
|
2
|
|
|
|
|
Asteroid (287) Nephthys
(Preview)
Asteroid (287) Nephthys is at Opposition on the 6th May, 2011. Magnitude=11.2 Distance to Sun=2.307 AU Distance to Earth=1.325 AU 287 Nephthys is a large Main belt asteroid. It is classified as an S-type asteroid. Read more EphemerisDate UT R.A. (J2000) Decl. Delta r El. Ph. V 2011 05 05 000...
|
Blobrana
|
7
|
|
|
|
|
Asteroid 2011 HN5
(Preview)
Orbital elements:
2011 HN5 Earth MOID = 0.0387 AU
Epoch 2011 Feb. 8.0 TT = JDT 2455600.5 MPC
M 48.37160 (2000.0) P Q
n 1.12098220 Peri. 201.46158 +0.42568666 -0.90359696
a 0.9177764 Node 223.38317 +0.84004028 +0.41434622
e 0.2450811 Incl. 4.00667 +0.33633793 +0.10876460
P 0.88 H 25.0 G 0....
|
Blobrana
|
1
|
|
|
|
|
Asteroid (22) Kalliope
(
1 2
)
(Preview)
Asteroid (22) Kalliope is a large main belt M-type asteroid discovered by J. R. Hind on November 16, 1852. It is named after Calliope, the Greek Muse of epic poetry. It is orbited by a small moon named Linus. Read more Google earth file: Aste...
|
Blobrana
|
11
|
|
|
|
|
Asteroid 2001 FA58
(Preview)
Orbital elements:
2001 FA58 PHA, Earth MOID = 0.0344 AU
Epoch 2011 Aug. 27.0 TT = JDT 2455800.5 MPC
M 8.06124 (2000.0) P Q
n 0.28963407 Peri. 112.16423 +0.00649957 +0.99858683
a 2.2624012 Node 158.01006 -0.96151395 +0.02072961
e 0.7158539 Incl. 8.09784 -0.27467924 -0.04893497
P 3.40 H 21...
|
Blobrana
|
1
|
|
|
|
|
Asteroid (45) Eugenia
(Preview)
Asteroid (45) Eugenia was discovered on June 28, 1857 by the Franco-German amateur astronomer Hermann Goldschmidt. Read more
|
Blobrana
|
6
|
|
|
|
|
Asteroid 2011 GP44
(Preview)
Orbital elements:
2011 GP44 Earth MOID = 0.0455 AU
Epoch 2011 Feb. 8.0 TT = JDT 2455600.5 MPC
M 58.78376 (2000.0) P Q
n 1.40366180 Peri. 193.08194 +0.82024533 -0.56984326
a 0.7900012 Node 201.88427 +0.53609794 +0.79617112
e 0.4191987 Incl. 7.67222 +0.19949084 +0.20344582
P 0.70 H 24.3 G 0...
|
Blobrana
|
1
|
|
|
|
|
Asteroid 1981 Midas (1973 EA)
(Preview)
The asteroid 1981 Midas was discovered on March 6, 1973 by Charles T. Kowal at Palomar Observatory. It is named after Midas, the king of Phrygia in Greek mythology who turned objects to gold when he touched them. Midas is an Apollo asteroid, a Venus and Mars-crosser asteroid with an orbital period of 2...
|
Blobrana
|
3
|
|
|
|
|
Asteroid (18) Melpomene
(
1 2
)
(Preview)
Asteroid (18) Melpomene is at Opposition on the 17th March, 2011. Distance to Sun=2.744 AU Distance to Earth=1.754 AU Magnitude=10.16 Ephemeris Date__(UT)__HR:MN R.A._(ICRF/J2000.0)_DEC Mag 2011-Mar-16 00:00 12 00 31.35 +07 32 05.4 10.17 2011-Mar-17 00:00 11 59 37.23 +07 41 10.4 10.16 201...
|
Blobrana
|
12
|
|
|
|
|
Asteroid (9548) Fortran
(Preview)
Asteroid (9548) Fortran makes its closest approach to the Earth (1.642 AU) on the 21st April, 2011. 9548 Fortran (1985 CN) is a main-belt asteroid discovered on February 13, 1985 by Spacewatch at Kitt Peak. Read more
|
Blobrana
|
1
|
|
|
|
|
Asteroid 2004 CK39
(Preview)
Orbital elements: 2004 CK39 Earth MOID = 0.0542 AU Epoch 2011 Feb. 8.0 TT = JDT 2455600.5 MPC M 338.06143 (2000.0) P Q n 0.28292730 Peri. 265.29131 -0.09265311 +0.99569579 a 2.2980148 Node 359.37826 -0.80858458 -0.07659065 e 0.8289199 Incl. 12.24970 -0.58103905 -0.05218977 P 3.48 H 19.2 G 0.15 U 5...
|
Blobrana
|
1
|
|
|
|
|
Asteroid (51) Nemausa
(Preview)
51 Nemausa is a large main belt asteroid similar to 1 Ceres in composition. It was discovered by one "A. Laurent", an obscure figure about whom little is known. Read more EphemerisDate TT R. A. (2000) Decl. Delta r Elong. Phase V...
|
Blobrana
|
8
|
|
|
|
|
Asteroid (20) Massalia
(Preview)
Asteroid (20) Massalia is at Opposition in the constellation Leo at 21:50 GMT, 14th March, 2011. Magnitude= 8.8 mag Distance to Sun=2.256 AU Distance to Earth=1.262 AU Position(2000): RA 11:36:09.5, Dec +1:50:18 20 Massalia is a large and fairly bright main-belt asteroid. It is also the largest...
|
Blobrana
|
9
|
|
|
|
|
Asteroid (11) Parthenope
(Preview)
Asteroid (11) Parthenope is at Opposition (9.9 Magnitude) on the 5th April, 2011. Asteroid (11) Parthenope is a large, bright main-belt asteroid. Parthenope was discovered by Annibale de Gasparis on May 11, 1850, the second of his nine asteroid discoveries. [url=http://en.wikipedia.org/wik...
|
Blobrana
|
8
|
|
|